[[{"header":{"parameterUnit":"m.s-1","parameterCategory":1,"la1":30.2991,"la2":30.254,"lo1":-89.0895,"lo2":-89.0444,"dy":0.0017,"dx":0.0017,"nx":28,"ny":28,"refTime":"2025-09-08T21:00:00:Z","depth":0,"parameterNumber":2,"parameterNumberName":"U-component_of_WINDS"},"data":[0,0,0,0,0,0,0,0,0,0,0,0,0,0,0,0,0,0,0,0,0,0,0,0,0,0,0,0,0,0,0,0,0,0,0,0,0,0,0,0,0,0,0,0,0,0,0,0,0,0,0,0,0,0,0,0,0,0,-0.64,-0.64,0,-0.6387,-0.6387,-0.6387,-0.6364,-0.6363,-0.6363,-0.6362,-0.635,-0.635,-0.635,0,0,0,0,0,0,0,0,0,0,0,0,0,-0.6403,-0.6403,-0.64,-0.64,-0.6399,-0.6387,-0.6387,-0.6387,-0.6364,-0.6363,-0.6363,-0.6362,-0.635,-0.635,-0.635,0,0,0,0,0,0,0,0,0,0,0,0,0,-0.6397,-0.6403,-0.64,-0.6386,-0.6385,-0.6387,-0.6387,-0.6387,-0.6364,-0.6363,-0.6362,-0.6362,-0.635,-0.635,-0.635,-0.6364,0,0,-0.635,-0.635,0,0,0,0,0,0,0,0,-0.6398,-0.6397,-0.6388,-0.6387,-0.6386,-0.6376,-0.6384,-0.6379,-0.6364,-0.6372,-0.6362,-0.6362,-0.6359,-0.6359,-0.6358,-0.6364,-0.6363,-0.635,-0.6351,-0.6351,-0.6351,0,0,0,0,0,0,0,-0.6398,-0.6398,-0.6395,-0.6388,-0.6387,-0.6381,-0.6379,-0.6383,-0.637,-0.6371,-0.6369,-0.6368,-0.6358,-0.6358,-0.6357,-0.6363,-0.635,-0.6351,-0.6351,-0.6351,-0.638,-0.6381,0,0,0,0,0,0,-0.6401,-0.6398,-0.6395,-0.6394,-0.639,-0.6381,-0.638,-0.638,-0.6369,-0.6367,-0.6369,-0.6367,-0.6358,-0.6357,-0.6357,-0.6373,-0.6351,-0.6351,-0.6351,-0.6379,-0.638,-0.6381,0,0,0,0,0,0,-0.6401,-0.6401,-0.6396,-0.6396,-0.6395,-0.6382,-0.6383,-0.638,-0.6379,-0.6368,-0.6365,-0.6371,-0.6357,-0.6356,-0.6363,-0.6372,-0.6351,-0.6351,-0.6378,-0.6379,-0.638,-0.6405,0,0,0,0,0,0,-0.6401,-0.6401,-0.6406,-0.6396,-0.6395,-0.6402,-0.6383,-0.638,-0.638,-0.6377,-0.6369,-0.6366,-0.6357,-0.6362,-0.6363,-0.6372,-0.6351,-0.6377,-0.6379,-0.638,-0.6403,-0.6407,-0.641,0,0,0,0,0,-0.6401,-0.6414,-0.6407,-0.6406,-0.6401,-0.6402,-0.6402,-0.639,-0.638,-0.6386,-0.6378,-0.6367,-0.6371,-0.6363,-0.6363,-0.6373,-0.6377,-0.6378,-0.638,-0.6402,-0.6406,-0.641,0,0,0,0,0,0,-0.6426,-0.6412,-0.6404,-0.6414,-0.6409,-0.6399,-0.6405,-0.6395,-0.6393,-0.6391,-0.6377,-0.6375,-0.6383,-0.6378,-0.637,-0.6386,-0.6372,-0.6374,-0.6389,-0.6393,-0.6396,-0.6397,-0.6351,0,0,0,0,0,-0.6432,-0.6434,-0.6422,-0.6432,-0.643,-0.6418,-0.6418,-0.6409,-0.6404,-0.6402,-0.6395,-0.6391,-0.6391,-0.6391,-0.6391,-0.6402,-0.64,-0.6409,-0.6412,-0.6414,-0.6416,-0.6422,-0.6426,-0.6386,-0.6386,-0.6386,0,0,-0.6446,-0.6438,-0.6441,-0.6437,-0.6432,-0.6435,-0.6417,-0.642,-0.6422,-0.6403,-0.6408,-0.6403,-0.6397,-0.6405,-0.6409,-0.6402,-0.6427,-0.6416,-0.6419,-0.6419,-0.6424,-0.6428,-0.6431,-0.6387,-0.6387,-0.6387,0,0,-0.6471,-0.6466,-0.6474,-0.6469,-0.6463,-0.6454,-0.6456,-0.6447,-0.6442,-0.6447,-0.6433,-0.6435,-0.6435,-0.6432,-0.643,-0.6454,-0.6443,-0.6454,-0.6471,-0.6476,-0.648,-0.6482,-0.6491,-0.6494,-0.6455,-0.6455,-0.6455,0,-0.6489,-0.6492,-0.6479,-0.6483,-0.6482,-0.6464,-0.6471,-0.6468,-0.6462,-0.6461,-0.6453,-0.6453,-0.6448,-0.6456,-0.6461,-0.646,-0.6462,-0.6455,-0.648,-0.6483,-0.6485,-0.6493,-0.6496,-0.6457,-0.6457,-0.6457,-0.6456,0,-0.6514,-0.6517,-0.6523,-0.6517,-0.6517,-0.6522,-0.651,-0.6511,-0.6502,-0.6494,-0.6499,-0.6492,-0.649,-0.6491,-0.6482,-0.6497,-0.6493,-0.6483,-0.6469,-0.649,-0.6498,-0.6501,-0.6459,-0.6458,-0.6458,-0.6458,0,0,-0.6556,-0.6542,-0.6545,-0.6542,-0.6533,-0.6534,-0.6539,-0.6537,-0.6538,-0.6534,-0.6537,-0.6538,-0.6528,-0.6526,-0.6517,-0.6522,-0.6541,-0.6511,-0.651,-0.6517,-0.6557,-0.6565,-0.6569,-0.6534,-0.6534,-0.6535,-0.6558,0,-0.6581,-0.6588,-0.6576,-0.6586,-0.6588,-0.6571,-0.6575,-0.657,-0.6563,-0.6563,-0.6555,-0.6556,-0.6543,-0.6542,-0.6546,-0.6538,-0.6549,-0.6536,-0.6537,-0.6537,-0.654,-0.6573,-0.6582,-0.6604,-0.656,-0.6561,-0.6561,0,-0.661,-0.6607,-0.6618,-0.6608,-0.6608,-0.6612,-0.6609,-0.6609,-0.6603,-0.6597,-0.6595,-0.6584,-0.6587,-0.6573,-0.6579,-0.657,-0.657,-0.6566,-0.6566,-0.6566,-0.6551,-0.6575,-0.6611,-0.6615,-0.6566,-0.6565,-0.6565,0,-0.664,-0.6639,-0.6645,-0.6643,-0.6631,-0.6634,-0.663,-0.6623,-0.6622,-0.6619,-0.6618,-0.6615,-0.6614,-0.6612,-0.6601,-0.6591,-0.6607,-0.6592,-0.6603,-0.6603,-0.6608,-0.6608,-0.6645,-0.6606,-0.6606,-0.6606,-0.6606,0,-0.6669,-0.6676,-0.6658,-0.6662,-0.667,-0.6655,-0.6663,-0.6656,-0.665,-0.6652,-0.6637,-0.664,-0.6624,-0.6624,-0.6615,-0.6621,-0.662,-0.6616,-0.6613,-0.6618,-0.6618,-0.6618,-0.6616,-0.6607,-0.6607,-0.6607,-0.6607,0,-0.6704,-0.6692,-0.6698,-0.6686,-0.6683,-0.6689,-0.6679,-0.6682,-0.6674,-0.6677,-0.6677,-0.6664,-0.6663,-0.6651,-0.6649,-0.6642,-0.6652,-0.6647,-0.6654,-0.6653,-0.6664,-0.6664,-0.6703,-0.6708,-0.6666,-0.6666,-0.6667,0,-0.6724,-0.6729,-0.6718,-0.6718,-0.6714,-0.6715,-0.6713,-0.6699,-0.6699,-0.6691,-0.6695,-0.6694,-0.6692,-0.6693,-0.6683,-0.6681,-0.6675,-0.6689,-0.6675,-0.6679,-0.6676,-0.6676,-0.6677,-0.6693,-0.6693,-0.6693,-0.6694,0,-0.676,-0.6754,-0.6753,-0.675,-0.6749,-0.6746,-0.6741,-0.6743,-0.6727,-0.6727,-0.6726,-0.6725,-0.6722,-0.6721,-0.6717,-0.6712,-0.67,-0.6698,-0.6701,-0.6705,-0.671,-0.6708,-0.6663,-0.6698,-0.6697,-0.6697,-0.6697,-0.6697,-0.6788,-0.6792,-0.6784,-0.6784,-0.6779,-0.6775,-0.6778,-0.6769,-0.6768,-0.6765,-0.6756,-0.6757,-0.675,-0.6743,-0.6739,-0.674,-0.6733,-0.6736,-0.6737,-0.6739,-0.6741,-0.6709,-0.6739,-0.6739,-0.6739,-0.6739,-0.6739,0,-0.6824,-0.6818,-0.6817,-0.6812,-0.6811,-0.68,-0.6795,-0.6795,-0.6796,-0.679,-0.6789,-0.6788,-0.6787,-0.6776,-0.6774,-0.6776,-0.6771,-0.6776,-0.6776,-0.6775,-0.6747,-0.6746,-0.678,-0.678,-0.678,-0.678,-0.678,-0.678,-0.6843,-0.6848,-0.6841,-0.6844,-0.6838,-0.6839,-0.6837,-0.6833,-0.6828,-0.6828,-0.6827,-0.682,-0.6813,-0.6809,-0.6807,-0.6804,-0.6804,-0.6811,-0.6807,-0.6781,-0.6777,-0.6773,-0.6772,-0.6811,-0.6811,-0.6835,-0.6835,-0.6835]},{"header":{"parameterUnit":"m.s-1","parameterCategory":1,"la1":30.2991,"la2":30.254,"lo1":-89.0895,"lo2":-89.0444,"dy":0.0017,"dx":0.0017,"nx":28,"ny":28,"refTime":"2025-09-08T21:00:00:Z","depth":0,"parameterNumber":3,"parameterNumberName":"V-component_of_WINDS"},"data":[0,0,0,0,0,0,0,0,0,0,0,0,0,0,0,0,0,0,0,0,0,0,0,0,0,0,0,0,0,0,0,0,0,0,0,0,0,0,0,0,0,0,0,0,0,0,0,0,0,0,0,0,0,0,0,0,0,0,-3.5738,-3.5739,0,-3.5742,-3.5742,-3.5742,-3.5697,-3.5696,-3.5695,-3.5694,-3.5696,-3.5697,-3.5698,0,0,0,0,0,0,0,0,0,0,0,0,0,-3.5692,-3.5693,-3.5738,-3.5739,-3.5739,-3.5742,-3.5742,-3.5742,-3.5697,-3.5696,-3.5695,-3.5693,-3.5696,-3.5697,-3.5699,0,0,0,0,0,0,0,0,0,0,0,0,0,-3.5706,-3.5694,-3.5738,-3.5717,-3.5715,-3.5742,-3.5742,-3.5742,-3.5698,-3.5696,-3.5694,-3.5692,-3.5695,-3.5697,-3.5699,-3.5747,0,0,-3.5704,-3.5705,0,0,0,0,0,0,0,0,-3.5705,-3.5707,-3.572,-3.5718,-3.5716,-3.5717,-3.5727,-3.5744,-3.5698,-3.5704,-3.5694,-3.5692,-3.5705,-3.5705,-3.571,-3.5747,-3.5747,-3.5704,-3.5706,-3.5706,-3.5707,0,0,0,0,0,0,0,-3.5704,-3.5707,-3.574,-3.572,-3.5718,-3.5707,-3.5707,-3.573,-3.5715,-3.5704,-3.57,-3.5701,-3.5703,-3.5709,-3.571,-3.5747,-3.5704,-3.5706,-3.5707,-3.5708,-3.5826,-3.5828,0,0,0,0,0,0,-3.5706,-3.5707,-3.574,-3.574,-3.5706,-3.5709,-3.5709,-3.5719,-3.5714,-3.5712,-3.5703,-3.5699,-3.5706,-3.5708,-3.571,-3.5768,-3.5706,-3.5708,-3.5709,-3.5824,-3.5826,-3.5829,0,0,0,0,0,0,-3.5705,-3.571,-3.574,-3.5722,-3.5725,-3.5712,-3.5723,-3.572,-3.5725,-3.5714,-3.5711,-3.5711,-3.5705,-3.5707,-3.5739,-3.5767,-3.5709,-3.571,-3.5821,-3.5825,-3.5827,-3.5884,0,0,0,0,0,0,-3.5704,-3.571,-3.5728,-3.5723,-3.5727,-3.5769,-3.5725,-3.5721,-3.5729,-3.5724,-3.5721,-3.5719,-3.5704,-3.5736,-3.574,-3.5769,-3.5712,-3.5819,-3.5823,-3.5826,-3.5879,-3.5888,-3.5896,0,0,0,0,0,-3.5703,-3.5742,-3.5729,-3.5733,-3.5749,-3.577,-3.5772,-3.5755,-3.5731,-3.575,-3.5742,-3.5719,-3.5763,-3.574,-3.5744,-3.5774,-3.5817,-3.5822,-3.5826,-3.5875,-3.5886,-3.5896,0,0,0,0,0,0,-3.5749,-3.5741,-3.5726,-3.5765,-3.5769,-3.5763,-3.5785,-3.5766,-3.5776,-3.5771,-3.5749,-3.5748,-3.5784,-3.5781,-3.5755,-3.5821,-3.5786,-3.5792,-3.5822,-3.5832,-3.584,-3.5841,-3.5713,0,0,0,0,0,-3.5764,-3.5783,-3.5774,-3.581,-3.5813,-3.5799,-3.5807,-3.5794,-3.5796,-3.5797,-3.5792,-3.5796,-3.5811,-3.5821,-3.5833,-3.5878,-3.5878,-3.59,-3.5909,-3.5916,-3.5922,-3.5947,-3.5958,-3.5844,-3.5844,-3.5844,0,0,-3.5795,-3.5793,-3.5806,-3.5819,-3.5821,-3.5841,-3.58,-3.5822,-3.5837,-3.58,-3.5831,-3.5827,-3.5829,-3.5868,-3.5885,-3.5867,-3.5953,-3.5922,-3.5927,-3.5929,-3.5953,-3.5964,-3.5974,-3.5847,-3.5846,-3.5846,0,0,-3.5863,-3.5862,-3.5893,-3.5896,-3.5898,-3.5889,-3.5897,-3.5894,-3.589,-3.592,-3.5894,-3.5911,-3.5936,-3.594,-3.5945,-3.6015,-3.5995,-3.602,-3.6065,-3.609,-3.6099,-3.6107,-3.6135,-3.6145,-3.6025,-3.6025,-3.6026,0,-3.5901,-3.593,-3.5911,-3.5936,-3.5944,-3.5912,-3.5944,-3.5947,-3.5953,-3.596,-3.5939,-3.5972,-3.5971,-3.6012,-3.6029,-3.6033,-3.6042,-3.6021,-3.6099,-3.6107,-3.6114,-3.614,-3.6151,-3.6029,-3.6028,-3.6028,-3.6028,0,-3.5978,-3.5999,-3.6024,-3.6033,-3.6043,-3.6071,-3.6056,-3.6069,-3.6054,-3.6048,-3.608,-3.6077,-3.609,-3.6098,-3.6084,-3.6138,-3.6127,-3.6103,-3.6068,-3.6129,-3.6153,-3.6163,-3.6033,-3.6032,-3.6031,-3.603,0,0,-3.6075,-3.6075,-3.6084,-3.6089,-3.6091,-3.6107,-3.6134,-3.6147,-3.616,-3.6165,-3.6189,-3.6211,-3.6191,-3.6196,-3.6182,-3.6204,-3.6263,-3.6178,-3.6178,-3.6196,-3.6325,-3.6345,-3.6357,-3.6249,-3.6251,-3.6252,-3.6326,0,-3.6143,-3.6191,-3.6175,-3.6223,-3.6244,-3.6214,-3.6238,-3.6242,-3.6237,-3.6253,-3.6246,-3.6264,-3.6234,-3.6238,-3.6258,-3.6252,-3.6289,-3.6246,-3.6272,-3.6273,-3.6275,-3.6369,-3.6389,-3.6459,-3.6335,-3.6336,-3.6338,0,-3.6228,-3.624,-3.6291,-3.6291,-3.6299,-3.6321,-3.6334,-3.6349,-3.6353,-3.6348,-3.6355,-3.6337,-3.6364,-3.6328,-3.6366,-3.6337,-3.6346,-3.6345,-3.6347,-3.6351,-3.6311,-3.6377,-3.648,-3.6492,-3.6352,-3.6351,-3.635,0,-3.6297,-3.6325,-3.636,-3.6364,-3.6365,-3.6382,-3.6383,-3.6385,-3.6395,-3.6405,-3.6412,-3.6425,-3.6433,-3.6444,-3.6429,-3.6404,-3.6471,-3.6432,-3.6468,-3.6469,-3.6485,-3.6485,-3.6594,-3.6487,-3.6487,-3.6487,-3.6487,0,-3.6376,-3.6409,-3.6391,-3.6413,-3.645,-3.6431,-3.6468,-3.6465,-3.6468,-3.6489,-3.6463,-3.6483,-3.6462,-3.648,-3.6469,-3.6504,-3.6507,-3.6504,-3.6501,-3.6508,-3.6509,-3.6515,-3.6511,-3.6489,-3.6489,-3.6488,-3.6488,0,-3.646,-3.6449,-3.6486,-3.6484,-3.6485,-3.6512,-3.6511,-3.6531,-3.6524,-3.6551,-3.6556,-3.6545,-3.6565,-3.6552,-3.6571,-3.6564,-3.6611,-3.6599,-3.661,-3.6608,-3.6646,-3.6643,-3.6765,-3.6781,-3.6662,-3.6663,-3.6664,0,-3.6512,-3.6538,-3.6539,-3.6552,-3.6556,-3.6576,-3.6587,-3.6569,-3.6582,-3.6589,-3.6609,-3.6628,-3.6642,-3.6676,-3.6669,-3.6685,-3.6676,-3.6717,-3.6678,-3.6685,-3.668,-3.668,-3.6683,-3.6726,-3.6727,-3.6728,-3.6729,0,-3.6607,-3.6601,-3.6618,-3.6634,-3.6648,-3.666,-3.6669,-3.6681,-3.6663,-3.6678,-3.67,-3.6711,-3.6732,-3.6752,-3.6765,-3.6766,-3.6746,-3.6742,-3.6751,-3.676,-3.6766,-3.6766,-3.6634,-3.6739,-3.6738,-3.6738,-3.6737,-3.6737,-3.6679,-3.6701,-3.6707,-3.6727,-3.6732,-3.6742,-3.6762,-3.6758,-3.6776,-3.6793,-3.6781,-3.6807,-3.6812,-3.6828,-3.6832,-3.6852,-3.6835,-3.6848,-3.6852,-3.6856,-3.6863,-3.6761,-3.6854,-3.6853,-3.6853,-3.6853,-3.6853,0,-3.6775,-3.6777,-3.6796,-3.6811,-3.6828,-3.6807,-3.6817,-3.6832,-3.6856,-3.6862,-3.6877,-3.6903,-3.6922,-3.6917,-3.6934,-3.6952,-3.6943,-3.6957,-3.6957,-3.6958,-3.6875,-3.6867,-3.6964,-3.6964,-3.6964,-3.6964,-3.6964,-3.6964,-3.6827,-3.6864,-3.6859,-3.6899,-3.6901,-3.6928,-3.6935,-3.6944,-3.695,-3.698,-3.6997,-3.6994,-3.6996,-3.7014,-3.7031,-3.7029,-3.7037,-3.7056,-3.7051,-3.6974,-3.6963,-3.6953,-3.6945,-3.7057,-3.7057,-3.7132,-3.7132,-3.7133]}]]